EW8310 Weather Reports


Display with metric or nautical units.
time (UTC)temp
F
wind
direction
speed
MPH
gust
MPH
rain 1hr
in
rain 24hr
in
rain mn
in
humidity
%
barometer
mb
20260831154033 76 276 2.0 9.0 0.00 0.44 0.44 79 1012.4
20260831153532 75 290 3.0 9.0 0.00 0.44 0.44 80 1012.5
20260831153033 75 295 3.0 9.0 0.00 0.44 0.44 82 1012.6
20260831152755 74 282 4.0 7.0 0.00 0.44 0.44 82 1012.7
20260831152032 74 272 1.0 4.0 0.00 0.44 0.44 85 1012.7
20260831151532 74 293 1.0 6.0 0.00 0.44 0.44 84 1012.6
20260831151034 74 281 3.0 6.0 0.00 0.44 0.44 84 1012.6
20260831150533 73 296 0.0 2.0 0.00 0.44 0.44 83 1012.4
20260831150249 73 283 0.0 2.0 0.00 0.44 0.44 86 1012.3
20260831145758 73 283 0.0 2.0 0.00 0.44 0.44 86 1012.2
20260831145032 73 203 0.0 1.0 0.00 0.44 0.44 88 1012.1
20260831144531 72 204 0.0 1.0 0.00 0.44 0.44 90 1012.0
20260831144032 71 295 0.0 0.0 0.00 0.44 0.44 92 1011.8
20260831143532 71 295 0.0 0.0 0.00 0.44 0.44 92 1011.7
20260831143031 70 295 0.0 0.0 0.00 0.44 0.44 92 1011.7
20260831142749 70 295 0.0 0.0 0.00 0.44 0.44 92 1011.7
20260831142030 70 357 0.0 0.0 0.00 0.44 0.44 92 1011.7
20260831141531 69 35 0.0 0.0 0.00 0.44 0.44 91 1011.8
20260831141031 69 35 0.0 0.0 0.01 0.44 0.44 92 1011.8
20260831141018 69 35 0.0 0.0 0.02 0.44 0.44 92 1011.8
20260831140032 69 162 0.0 0.0 0.02 0.44 0.44 92 1011.8
20260831135530 69 27 0.0 0.0 0.03 0.44 0.44 91 1012.0
20260831135030 69 27 0.0 0.0 0.03 0.44 0.44 91 1012.0
20260831134749 69 87 0.0 0.0 0.06 0.44 0.44 92 1012.0
20260831134030 69 124 0.0 0.0 0.07 0.44 0.44 91 1012.0
20260831133742 69 155 2.0 9.0 0.08 0.44 0.44 91 1011.7
20260831133629 69 240 0.0 4.0 0.07 0.44 0.44 92 1012.1
20260831132529 69 162 2.0 10.0 0.08 0.44 0.44 91 1011.5
20260831132255 69 97 2.0 12.0 0.09 0.44 0.44 91 1011.5
20260831131530 70 124 3.0 12.0 0.09 0.44 0.44 90 1011.5
20260831131030 70 175 0.0 4.0 0.08 0.43 0.43 89 1011.6
20260831130529 70 107 0.0 10.0 0.07 0.42 0.43 87 1011.6
20260831130029 71 97 2.0 20.0 0.06 0.41 0.42 84 1011.7
20260831125528 72 3 7.0 20.0 0.06 0.41 0.41 77 1011.7
20260831125029 72 307 3.0 14.0 0.07 0.41 0.41 77 1012.0
20260831124529 72 319 7.0 18.0 0.09 0.38 0.38 75 1012.1
20260831124029 72 331 5.0 18.0 0.25 0.37 0.37 77 1012.0
20260831123529 72 288 5.0 11.0 0.34 0.37 0.37 80 1012.2
20260831123029 71 323 3.0 11.0 0.36 0.36 0.36 81 1012.4
20260831123009 71 286 4.0 11.0 0.36 0.36 0.36 82 1012.1
20260831122028 71 312 6.0 10.0 0.35 0.35 0.35 83 1012.0
20260831121528 71 275 3.0 7.0 0.35 0.35 0.35 83 1012.1
20260831121244 71 295 2.0 9.0 0.35 0.35 0.35 84 1012.0
20260831120528 70 283 4.0 9.0 0.35 0.35 0.35 87 1011.8
20260831120028 70 262 4.0 10.0 0.35 0.35 0.35 87 1011.6
20260831115527 70 295 6.0 17.0 0.35 0.35 0.35 87 1011.7
20260831115027 70 286 6.0 17.0 0.34 0.34 0.34 85 1011.6
20260831115014 72 312 8.0 17.0 0.29 0.29 0.32 81 1011.7
20260831114518 74 295 8.0 17.0 0.12 0.12 0.13 75 1011.7
20260831113526 76 305 10.0 17.0 0.03 0.03 0.03 69 1011.4
20260831113027 77 286 7.0 19.0 0.00 0.00 0.00 64 1011.4
20260831112527 79 298 10.0 19.0 0.00 0.00 0.00 60 1011.1
20260831112027 80 274 0.0 0.0 0.00 0.00 0.00 59 1010.4
20260831111527 79 299 0.0 0.0 0.00 0.00 0.00 60 1010.3
20260831111248 79 24 0.0 0.0 0.00 0.00 0.00 60 1010.3
20260831110526 79 25 0.0 0.0 0.00 0.00 0.00 60 1010.2
20260831110025 79 25 0.0 0.0 0.00 0.00 0.00 57 1010.0
20260831105526 80 25 0.0 0.0 0.00 0.00 0.00 58 1009.9
20260831105025 80 25 0.0 0.0 0.00 0.00 0.00 56 1009.7
20260831104526 79 25 0.0 0.0 0.00 0.00 0.00 57 1009.7
20260831104247 78 25 0.0 0.0 0.00 0.00 0.00 59 1009.5
20260831103526 78 25 0.0 0.0 0.00 0.00 0.00 62 1009.5
20260831103025 78 25 0.0 0.0 0.00 0.00 0.00 62 1009.5
20260831102525 78 25 0.0 0.0 0.00 0.00 0.00 62 1009.5
20260831102025 78 25 0.0 0.0 0.00 0.00 0.00 61 1009.5
20260831101544 78 25 0.0 0.0 0.00 0.00 0.00 61 1009.5
20260831101246 79 25 0.0 0.0 0.00 0.00 0.00 60 1009.4
20260831100524 79 25 0.0 0.0 0.00 0.00 0.00 59 1009.6
20260831100025 78 25 0.0 0.0 0.00 0.00 0.00 60 1009.5
20260831095524 78 25 0.0 0.0 0.00 0.00 0.00 59 1009.4
20260831095245 79 25 0.0 0.0 0.00 0.00 0.00 60 1009.4
20260831095007 79 25 0.0 0.0 0.00 0.00 0.00 58 1009.4
20260831094024 78 25 0.0 0.0 0.00 0.00 0.00 60 1009.4
20260831093523 78 25 0.0 0.0 0.00 0.00 0.00 61 1009.4
20260831093023 78 25 0.0 0.0 0.00 0.00 0.00 62 1009.4
20260831092524 78 25 0.0 0.0 0.00 0.00 0.00 61 1009.4
20260831092506 79 25 0.0 0.0 0.00 0.00 0.00 61 1009.2
20260831091523 79 25 0.0 0.0 0.00 0.00 0.00 61 1009.1
20260831091023 79 25 0.0 0.0 0.00 0.00 0.00 60 1009.1
20260831090523 79 25 0.0 0.0 0.00 0.00 0.00 59 1009.2
20260831090024 79 25 0.0 0.0 0.00 0.00 0.00 58 1009.4
20260831085519 80 25 0.0 0.0 0.00 0.00 0.00 58 1009.4
20260831085023 80 25 0.0 0.0 0.00 0.00 0.00 58 1009.4
20260831084523 80 25 0.0 0.0 0.00 0.00 0.00 57 1009.4
20260831084240 80 25 0.0 0.0 0.00 0.00 0.00 55 1009.2
20260831083743 80 25 0.0 0.0 0.00 0.00 0.00 56 1009.4
20260831083022 81 25 0.0 0.0 0.00 0.00 0.00 57 1009.4
20260831082522 81 25 0.0 0.0 0.00 0.00 0.00 57 1009.5
20260831082023 80 25 0.0 0.0 0.00 0.00 0.00 56 1009.6
20260831081523 80 24 0.0 0.0 0.00 0.00 0.00 57 1009.5
20260831081019 80 25 0.0 0.0 0.00 0.00 0.00 58 1009.5
20260831080521 81 25 0.0 0.0 0.00 0.00 0.00 56 1009.6
20260831080022 82 25 0.0 0.0 0.00 0.00 0.00 54 1009.7
20260831075522 82 25 0.0 0.0 0.00 0.00 0.00 53 1009.7
20260831075022 82 24 0.0 0.0 0.00 0.00 0.00 53 1009.8
20260831074522 82 357 0.0 0.0 0.00 0.00 0.00 54 1009.8
20260831074022 82 357 0.0 0.0 0.00 0.00 0.00 54 1009.8
20260831073522 82 357 0.0 0.0 0.00 0.00 0.00 54 1009.7
20260831073017 82 357 0.0 0.0 0.00 0.00 0.00 52 1009.7
20260831072518 83 357 0.0 0.0 0.00 0.00 0.00 52 1009.8
20260831072021 83 357 0.0 0.0 0.00 0.00 0.00 51 1009.8
20260831071523 83 357 0.0 0.0 0.00 0.00 0.00 51 1009.8
20260831071021 84 357 0.0 0.0 0.00 0.00 0.00 50 1009.8
20260831070521 84 357 0.0 0.0 0.00 0.00 0.00 50 1009.8
20260831070241 84 357 0.0 0.0 0.00 0.00 0.00 50 1009.8
20260831065521 84 357 0.0 0.0 0.00 0.00 0.00 50 1009.8
20260831065016 84 357 0.0 0.0 0.00 0.00 0.00 50 1009.8
20260831064517 84 357 0.0 0.0 0.00 0.00 0.00 51 1009.9
20260831064020 84 254 0.0 0.0 0.00 0.00 0.00 50 1009.9
20260831063519 85 254 0.0 0.0 0.00 0.00 0.00 49 1009.9
20260831063020 85 224 0.0 1.0 0.00 0.00 0.00 46 1009.8
20260831062526 86 261 0.0 5.0 0.00 0.00 0.00 46 1009.8
20260831062020 86 254 0.0 6.0 0.00 0.00 0.00 46 1009.8
20260831061520 86 227 1.0 7.0 0.00 0.00 0.00 46 1009.9
20260831061020 86 266 2.0 7.0 0.00 0.00 0.00 46 1009.8
20260831060739 86 285 2.0 4.0 0.00 0.00 0.00 46 1009.8
20260831060016 87 238 0.0 6.0 0.00 0.00 0.00 45 1009.7
20260831055519 87 272 2.0 7.0 0.00 0.00 0.00 45 1009.8
20260831055021 87 276 2.0 9.0 0.00 0.00 0.00 45 1009.8
20260831054518 87 295 1.0 9.0 0.00 0.00 0.00 44 1009.8
20260831054020 87 290 3.0 7.0 0.00 0.00 0.00 44 1009.8
20260831053519 87 295 3.0 10.0 0.00 0.00 0.00 44 1009.7
20260831053018 87 313 4.0 11.0 0.00 0.00 0.00 44 1009.6
20260831052518 87 292 6.0 11.0 0.00 0.00 0.00 43 1009.6
20260831052019 87 276 2.0 12.0 0.00 0.00 0.00 44 1009.5
20260831051519 87 197 5.0 13.0 0.00 0.00 0.00 43 1009.4
20260831051018 87 298 2.0 13.0 0.00 0.00 0.00 43 1009.2
20260831050518 87 317 5.0 13.0 0.00 0.00 0.00 43 1009.2
20260831050018 88 302 5.0 16.0 0.00 0.00 0.00 43 1009.2
20260831045518 88 290 5.0 16.0 0.00 0.00 0.00 43 1009.2
20260831045018 88 300 7.0 12.0 0.00 0.00 0.00 43 1009.4
20260831044519 87 310 7.0 12.0 0.00 0.00 0.00 43 1009.4
20260831044241 88 288 4.0 14.0 0.00 0.00 0.00 43 1009.5
20260831043515 88 266 6.0 14.0 0.00 0.00 0.00 42 1009.6
20260831043248 88 285 5.0 16.0 0.00 0.00 0.00 42 1009.5
20260831043003 88 269 6.0 16.0 0.00 0.00 0.00 42 1009.5
20260831042017 88 320 7.0 14.0 0.00 0.00 0.00 42 1009.5
20260831041740 88 264 6.0 15.0 0.00 0.00 0.00 41 1009.2
20260831041017 88 307 7.0 19.0 0.00 0.00 0.00 41 1009.2
20260831040516 88 286 9.0 19.0 0.00 0.00 0.00 41 1009.2
20260831040012 88 292 7.0 17.0 0.00 0.00 0.00 41 1009.2
20260831035513 88 269 4.0 13.0 0.00 0.00 0.00 40 1009.1
20260831035013 88 314 6.0 17.0 0.00 0.00 0.00 40 1009.1
20260831034517 88 282 7.0 17.0 0.00 0.00 0.00 40 1009.1
20260831034015 89 278 10.0 17.0 0.00 0.00 0.00 40 1009.0
20260831033514 89 278 10.0 17.0 0.00 0.00 0.00 39 1009.0
20260831033015 89 307 10.0 18.0 0.00 0.00 0.00 38 1008.8
20260831032514 89 286 10.0 24.0 0.00 0.00 0.00 37 1008.8
20260831032237 89 309 11.0 24.0 0.00 0.00 0.00 37 1008.6
20260831031514 89 305 10.0 22.0 0.00 0.00 0.00 38 1008.4
20260831031013 89 281 10.0 22.0 0.00 0.00 0.00 38 1008.2
20260831030513 90 298 13.0 22.0 0.00 0.00 0.00 38 1008.1
20260831030015 90 266 9.0 16.0 0.00 0.00 0.00 39 1007.9
20260831025748 91 278 7.0 17.0 0.00 0.00 0.00 38 1007.8
20260831025015 92 302 7.0 17.0 0.00 0.00 0.00 36 1007.8
20260831024515 92 283 2.0 9.0 0.00 0.00 0.00 35 1007.7
20260831024017 92 299 1.0 9.0 0.00 0.00 0.00 35 1007.5
20260831023515 92 264 0.0 5.0 0.00 0.00 0.00 35 1007.4
20260831023011 92 305 1.0 7.0 0.00 0.00 0.00 35 1007.2
20260831022510 92 309 1.0 7.0 0.00 0.00 0.00 35 1007.2
20260831022014 92 307 0.0 5.0 0.00 0.00 0.00 35 1007.1
20260831021514 92 317 0.0 5.0 0.00 0.00 0.00 34 1007.1
20260831021014 92 319 1.0 4.0 0.00 0.00 0.00 34 1007.0
20260831020515 92 296 0.0 3.0 0.00 0.00 0.00 34 1007.0
20260831020014 93 285 0.0 5.0 0.00 0.00 0.00 33 1007.0
20260831015514 93 268 1.0 5.0 0.00 0.00 0.00 33 1006.9
20260831015014 93 334 0.0 5.0 0.00 0.00 0.00 33 1006.9
20260831014734 93 302 1.0 5.0 0.00 0.00 0.00 33 1006.9
20260831014237 93 286 1.0 4.0 0.00 0.00 0.00 33 1006.9
20260831013513 93 317 0.0 4.0 0.00 0.00 0.00 33 1006.6
20260831013242 94 293 0.0 5.0 0.00 0.00 0.00 32 1006.6
20260831012513 94 278 0.0 9.0 0.00 0.00 0.00 32 1006.5
20260831012013 94 0 2.0 9.0 0.00 0.00 0.00 32 1006.6
20260831011513 94 290 1.0 4.0 0.00 0.00 0.00 32 1006.6
20260831011016 94 288 0.0 6.0 0.00 0.00 0.00 32 1006.5
20260831010512 95 330 1.0 7.0 0.00 0.00 0.00 31 1006.6
20260831010009 95 300 2.0 7.0 0.00 0.00 0.00 31 1006.5
20260831005729 96 264 2.0 6.0 0.00 0.00 0.00 30 1006.5
20260831005448 96 290 2.0 6.0 0.00 0.00 0.00 30 1006.5
20260831004512 97 314 0.0 5.0 0.00 0.00 0.00 30 1006.5
20260831004235 97 302 2.0 6.0 0.00 0.00 0.00 30 1006.5
20260831003512 97 343 0.0 6.0 0.00 0.00 0.00 30 1006.6
20260831003012 97 18 1.0 9.0 0.00 0.00 0.00 29 1006.6
20260831002509 97 307 4.0 9.0 0.00 0.00 0.00 29 1006.5
20260831002008 97 276 1.0 9.0 0.00 0.00 0.00 29 1006.6
20260831001508 97 255 3.0 9.0 0.00 0.00 0.00 29 1006.6
20260831001011 98 300 2.0 10.0 0.00 0.00 0.00 29 1006.6
20260831000512 98 258 3.0 10.0 0.00 0.00 0.00 29 1006.6
20260831000011 98 278 4.0 10.0 0.00 0.00 0.00 29 1006.5
20260830235511 98 266 2.0 7.0 0.00 0.00 0.00 29 1006.5
20260830235231 99 295 1.0 7.0 0.00 0.00 0.00 28 1006.5
20260830234511 98 245 2.0 7.0 0.00 0.00 0.00 29 1006.5
20260830234011 98 226 0.0 9.0 0.00 0.00 0.00 30 1006.5
20260830233510 98 244 3.0 9.0 0.00 0.00 0.00 29 1006.6
20260830233007 98 303 2.0 7.0 0.00 0.00 0.00 28 1006.6
20260830232510 99 300 2.0 7.0 0.00 0.00 0.00 28 1006.8
20260830232232 99 226 2.0 10.0 0.00 0.00 0.00 28 1006.8
20260830231510 99 213 3.0 10.0 0.00 0.00 0.00 29 1006.9
20260830231010 99 250 1.0 6.0 0.00 0.00 0.00 28 1007.0
20260830230510 98 217 3.0 9.0 0.00 0.00 0.00 28 1007.1
20260830230010 98 220 2.0 9.0 0.00 0.00 0.00 29 1007.1
20260830225506 97 268 2.0 7.0 0.00 0.00 0.00 30 1007.2
20260830225006 97 275 2.0 10.0 0.00 0.00 0.00 30 1007.3
20260830224506 98 312 6.0 11.0 0.00 0.00 0.00 29 1007.4
20260830224233 98 286 5.0 11.0 0.00 0.00 0.00 29 1007.4
20260830223731 97 224 2.0 10.0 0.00 0.00 0.00 30 1007.5
20260830223009 97 312 1.0 9.0 0.00 0.00 0.00 29 1007.7
20260830222509 97 281 1.0 9.0 0.00 0.00 0.00 30 1007.8
20260830222005 97 254 1.0 10.0 0.00 0.00 0.00 29 1007.7
20260830221505 97 264 2.0 10.0 0.00 0.00 0.00 30 1007.8
20260830221005 97 234 3.0 12.0 0.00 0.00 0.00 30 1007.9
20260830220505 97 307 3.0 12.0 0.00 0.00 0.00 30 1008.1
20260830220230 98 259 1.0 12.0 0.00 0.00 0.00 29 1008.1
20260830215508 98 38 0.0 12.0 0.00 0.00 0.00 29 1008.2
20260830215008 98 286 3.0 10.0 0.00 0.00 0.00 30 1008.3
20260830214509 98 281 1.0 9.0 0.00 0.00 0.00 30 1008.4
20260830214008 97 279 1.0 12.0 0.00 0.00 0.00 30 1008.4
20260830213503 97 358 3.0 12.0 0.00 0.00 0.00 30 1008.5
20260830213004 98 296 4.0 11.0 0.00 0.00 0.00 29 1008.6
20260830212504 99 306 6.0 11.0 0.00 0.00 0.00 29 1008.7
20260830212005 100 276 1.0 11.0 0.00 0.00 0.00 28 1008.7
20260830211507 99 230 4.0 10.0 0.00 0.00 0.00 28 1008.8
20260830211007 100 17 1.0 7.0 0.00 0.00 0.00 28 1008.9
20260830210735 100 295 0.0 9.0 0.00 0.00 0.00 27 1009.0
20260830210226 100 182 2.0 12.0 0.00 0.00 0.00 27 1009.1
20260830205506 100 240 0.0 12.0 0.00 0.00 0.00 28 1009.2
20260830205232 100 234 0.0 5.0 0.00 0.00 0.00 28 1009.4
20260830204507 100 357 1.0 5.0 0.00 0.00 0.00 29 1009.5
20260830204007 99 224 0.0 5.0 0.00 0.00 0.00 30 1009.6
20260830203506 98 266 1.0 10.0 0.00 0.00 0.00 30 1009.8
20260830203006 98 299 4.0 10.0 0.00 0.00 0.00 30 1009.8
20260830202506 98 152 3.0 9.0 0.00 0.00 0.00 30 1009.9
20260830202005 98 78 0.0 11.0 0.00 0.00 0.00 30 1009.9
20260830201728 98 220 3.0 13.0 0.00 0.00 0.00 30 1010.1
20260830201006 98 243 3.0 13.0 0.00 0.00 0.00 30 1010.2
20260830200732 99 244 3.0 9.0 0.00 0.00 0.00 30 1010.2
20260830200005 99 203 1.0 7.0 0.00 0.00 0.00 29 1010.2
20260830195502 99 202 4.0 10.0 0.00 0.00 0.00 30 1010.2
20260830195006 98 251 0.0 10.0 0.00 0.00 0.00 30 1010.3
20260830194505 98 202 0.0 7.0 0.00 0.00 0.00 31 1010.3
20260830194005 97 210 2.0 7.0 0.00 0.00 0.00 31 1010.5
20260830193505 98 305 2.0 7.0 0.00 0.00 0.00 31 1010.5
20260830193005 97 254 1.0 3.0 0.00 0.00 0.00 32 1010.7
20260830192505 96 102 0.0 9.0 0.00 0.00 0.00 32 1010.8
20260830192001 97 120 0.0 11.0 0.00 0.00 0.00 31 1011.0
20260830191501 97 179 2.0 11.0 0.00 0.00 0.00 31 1011.0
20260830191001 97 219 3.0 9.0 0.00 0.00 0.00 32 1011.0
20260830190504 97 149 3.0 7.0 0.00 0.00 0.00 32 1011.1
20260830190004 96 173 2.0 5.0 0.00 0.00 0.00 33 1011.2
20260830185504 95 165 0.0 10.0 0.00 0.00 0.00 33 1011.2
20260830185005 95 140 2.0 10.0 0.00 0.00 0.00 34 1011.2
20260830184503 95 220 1.0 10.0 0.00 0.00 0.00 33 1011.3
20260830184003 96 158 4.0 10.0 0.00 0.00 0.00 33 1011.3
20260830183504 95 161 2.0 10.0 0.00 0.00 0.00 34 1011.4
20260830183004 95 180 2.0 13.0 0.00 0.00 0.00 35 1011.5
20260830182500 95 271 4.0 13.0 0.00 0.00 0.00 34 1011.6
20260830182004 95 223 3.0 7.0 0.00 0.00 0.00 33 1011.6
20260830181503 95 100 2.0 5.0 0.00 0.00 0.00 34 1011.7
20260830181446 95 149 1.0 6.0 0.00 0.00 0.00 34 1011.8
20260830180727 94 168 1.0 6.0 0.00 0.00 0.00 35 1011.8
20260830180005 94 182 0.0 6.0 0.00 0.00 0.00 35 1012.0
20260830175722 95 203 1.0 6.0 0.00 0.00 0.00 35 1012.0
20260830174958 94 123 0.0 11.0 0.00 0.00 0.00 36 1012.0
20260830174459 94 213 4.0 11.0 0.00 0.00 0.00 36 1012.0
20260830174002 94 164 1.0 7.0 0.00 0.00 0.00 36 1012.0
20260830173727 94 149 3.0 7.0 0.00 0.00 0.00 36 1012.0
20260830173002 93 199 1.0 5.0 0.00 0.00 0.00 38 1012.1
20260830172721 92 257 1.0 6.0 0.00 0.00 0.00 38 1012.1
20260830172002 92 159 2.0 6.0 0.00 0.00 0.00 38 1012.2
20260830171502 92 157 0.0 6.0 0.00 0.00 0.00 39 1012.2
20260830171001 92 223 3.0 6.0 0.00 0.00 0.00 38 1012.2
20260830170502 92 259 1.0 6.0 0.00 0.00 0.00 39 1012.2
20260830170002 92 133 1.0 6.0 0.00 0.00 0.00 40 1012.2
20260830165502 91 223 0.0 0.0 0.00 0.00 0.00 40 1012.1
20260830165001 91 244 0.0 0.0 0.00 0.00 0.00 40 1012.2
20260830164501 90 140 0.0 0.0 0.00 0.00 0.00 41 1012.2
20260830164000 90 141 0.0 0.0 0.00 0.00 0.00 40 1012.2
20260830163501 89 212 0.0 0.0 0.00 0.00 0.00 41 1012.2
20260830163221 89 285 0.0 1.0 0.00 0.00 0.00 40 1012.4
20260830162724 90 245 0.0 1.0 0.00 0.00 0.00 42 1012.4
20260830162446 89 276 0.0 3.0 0.00 0.00 0.00 42 1012.4
20260830161500 89 276 1.0 3.0 0.00 0.00 0.00 41 1012.4
20260830161000 90 237 0.0 3.0 0.00 0.00 0.00 41 1012.4
20260830160500 90 223 0.0 3.0 0.00 0.00 0.00 42 1012.5
20260830160223 90 148 1.0 2.0 0.00 0.00 0.00 42 1012.4
20260830155500 89 157 0.0 0.0 0.00 0.00 0.00 42 1012.5
20260830155000 89 279 0.0 0.0 0.00 0.00 0.00 43 1012.5
20260830154722 88 171 0.0 0.0 0.00 0.00 0.00 43 1012.4